When you browse on this site, cookies collect data to enhance your experience and personalize the content and advertising you see.
Visit our Privacy Policy to learn more. By continuing to use the site, you agree to this use of cookies and data.
  • In Hungary
  • List of Countries
  • For 7 days
  • Water Temperature
  • Weather Map
  • News
  • Weather Widgets
  • user-avatar
    Login

    Hourly Weather Al-Kunajtira

    Today, 22 November, Friday

    Time Temperature Precipitation Wind Pressure Humidity
    00:00 +13°C° 0 mm 0 mps 736 mmHg 80%
    01:00 +12°C° 0 mm 0 mps 736 mmHg 81%
    02:00 +13°C° 0 mm 1 mps 735 mmHg 82%
    03:00 +13°C° 0 mm 1 mps 736 mmHg 80%
    04:00 +13°C° 0 mm 1 mps 736 mmHg 78%
    05:00 +13°C° 0 mm 1 mps 736 mmHg 76%
    06:00 +13°C° 0 mm 1 mps 736 mmHg 69%
    07:00 +14°C° 0 mm 2 mps 736 mmHg 63%
    08:00 +15°C° 0 mm 2 mps 736 mmHg 56%
    09:00 +16°C° 0 mm 2 mps 736 mmHg 47%
    10:00 +17°C° 0 mm 3 mps 737 mmHg 39%
    11:00 +18°C° 0 mm 4 mps 737 mmHg 31%
    12:00 +19°C° 0 mm 4 mps 737 mmHg 29%
    13:00 +19°C° 0 mm 4 mps 736 mmHg 28%
    14:00 +19°C° 0 mm 4 mps 736 mmHg 26%
    15:00 +18°C° 0 mm 3 mps 736 mmHg 28%
    16:00 +17°C° 0 mm 3 mps 736 mmHg 29%
    17:00 +16°C° 0 mm 3 mps 736 mmHg 30%
    18:00 +15°C° 0 mm 2 mps 736 mmHg 31%
    19:00 +15°C° 0 mm 2 mps 736 mmHg 32%
    20:00 +14°C° 0 mm 2 mps 737 mmHg 33%
    21:00 +14°C° 0 mm 2 mps 737 mmHg 34%
    22:00 +13°C° 0 mm 2 mps 737 mmHg 36%
    23:00 +13°C° 0 mm 2 mps 737 mmHg 37%

    Tomorrow, 23 November, Saturday

    Time Temperature Precipitation Wind Pressure Humidity
    00:00 +12°C° 0 mm 2 mps 737 mmHg 38%
    01:00 +12°C° 0 mm 2 mps 737 mmHg 39%
    02:00 +10°C° 0 mm 2 mps 737 mmHg 40%
    03:00 +10°C° 0 mm 2 mps 737 mmHg 40%
    04:00 +10°C° 0 mm 2 mps 737 mmHg 41%
    05:00 +9°C° 0 mm 2 mps 737 mmHg 42%
    06:00 +10°C° 0 mm 2 mps 737 mmHg 40%
    07:00 +12°C° 0 mm 2 mps 738 mmHg 39%
    08:00 +13°C° 0 mm 2 mps 738 mmHg 37%
    09:00 +13°C° 0 mm 3 mps 738 mmHg 33%
    10:00 +16°C° 0 mm 3 mps 738 mmHg 29%
    11:00 +17°C° 0 mm 4 mps 738 mmHg 26%
    12:00 +18°C° 0 mm 4 mps 738 mmHg 24%
    13:00 +19°C° 0 mm 4 mps 737 mmHg 23%
    14:00 +19°C° 0 mm 4 mps 737 mmHg 21%
    15:00 +18°C° 0 mm 3 mps 737 mmHg 23%
    16:00 +17°C° 0 mm 3 mps 737 mmHg 26%
    17:00 +16°C° 0 mm 2 mps 737 mmHg 28%
    18:00 +15°C° 0 mm 2 mps 737 mmHg 29%
    19:00 +15°C° 0 mm 2 mps 737 mmHg 30%
    20:00 +15°C° 0 mm 2 mps 738 mmHg 31%
    21:00 +14°C° 0 mm 2 mps 738 mmHg 32%
    22:00 +14°C° 0 mm 2 mps 738 mmHg 34%
    23:00 +13°C° 0 mm 2 mps 738 mmHg 35%

    Day after tomorrow, 24 November, Sunday

    Time Temperature Precipitation Wind Pressure Humidity
    00:00 +13°C° 0 mm 2 mps 738 mmHg 36%
    01:00 +13°C° 0 mm 2 mps 737 mmHg 37%
    02:00 +13°C° 0 mm 2 mps 737 mmHg 38%
    03:00 +12°C° 0 mm 2 mps 737 mmHg 39%
    04:00 +12°C° 0 mm 2 mps 737 mmHg 40%
    05:00 +12°C° 0 mm 2 mps 737 mmHg 41%
    06:00 +12°C° 0 mm 2 mps 737 mmHg 39%
    07:00 +13°C° 0 mm 2 mps 738 mmHg 38%
    08:00 +14°C° 0 mm 2 mps 738 mmHg 37%
    09:00 +15°C° 0 mm 2 mps 738 mmHg 34%
    10:00 +16°C° 0 mm 3 mps 738 mmHg 31%
    11:00 +17°C° 0 mm 3 mps 738 mmHg 28%
    12:00 +18°C° 0 mm 3 mps 738 mmHg 27%
    13:00 +19°C° 0 mm 4 mps 737 mmHg 26%
    14:00 +19°C° 0 mm 4 mps 737 mmHg 24%
    15:00 +18°C° 0 mm 4 mps 737 mmHg 27%
    16:00 +17°C° 0 mm 3 mps 737 mmHg 30%
    17:00 +14°C° 0 mm 3 mps 737 mmHg 32%
    18:00 +14°C° 0 mm 3 mps 737 mmHg 34%
    19:00 +14°C° 0 mm 2 mps 737 mmHg 35%
    20:00 +14°C° 0 mm 2 mps 737 mmHg 37%
    21:00 +13°C° 0 mm 2 mps 737 mmHg 38%
    22:00 +13°C° 0 mm 2 mps 737 mmHg 39%
    23:00 +12°C° 0 mm 2 mps 737 mmHg 39%

    25 November, Monday

    Time Temperature Precipitation Wind Pressure Humidity
    00:00 +12°C° 0 mm 2 mps 737 mmHg 40%
    01:00 +10°C° 0 mm 2 mps 737 mmHg 41%
    02:00 +10°C° 0 mm 2 mps 737 mmHg 42%
    03:00 +10°C° 0 mm 2 mps 737 mmHg 42%
    04:00 +10°C° 0 mm 2 mps 736 mmHg 43%
    05:00 +9°C° 0 mm 2 mps 736 mmHg 43%
    06:00 +10°C° 0 mm 2 mps 737 mmHg 42%
    07:00 +12°C° 0 mm 2 mps 737 mmHg 40%
    08:00 +12°C° 0 mm 2 mps 737 mmHg 39%
    09:00 +14°C° 0 mm 2 mps 737 mmHg 35%
    10:00 +14°C° 0 mm 3 mps 737 mmHg 32%
    11:00 +16°C° 0 mm 3 mps 737 mmHg 29%
    12:00 +17°C° 0 mm 4 mps 736 mmHg 28%
    13:00 +18°C° 0 mm 4 mps 736 mmHg 27%
    14:00 +18°C° 0 mm 4 mps 736 mmHg 26%
    15:00 +17°C° 0 mm 4 mps 735 mmHg 28%
    16:00 +16°C° 0 mm 3 mps 735 mmHg 30%
    17:00 +14°C° 0 mm 3 mps 735 mmHg 32%
    18:00 +14°C° 0 mm 3 mps 735 mmHg 33%
    19:00 +14°C° 0 mm 3 mps 735 mmHg 34%
    20:00 +13°C° 0 mm 3 mps 735 mmHg 35%
    21:00 +13°C° 0 mm 3 mps 735 mmHg 36%
    22:00 +13°C° 0 mm 3 mps 735 mmHg 36%
    23:00 +13°C° 0 mm 3 mps 735 mmHg 36%

    26 November, Tuesday

    Time Temperature Precipitation Wind Pressure Humidity
    00:00 +13°C° 0 mm 3 mps 734 mmHg 37%
    01:00 +12°C° 0 mm 3 mps 734 mmHg 37%
    02:00 +12°C° 0 mm 3 mps 734 mmHg 38%
    03:00 +12°C° 0 mm 3 mps 734 mmHg 38%
    04:00 +12°C° 0 mm 3 mps 733 mmHg 39%
    05:00 +12°C° 0 mm 3 mps 733 mmHg 39%
    06:00 +12°C° 0 mm 3 mps 733 mmHg 39%
    07:00 +13°C° 0 mm 4 mps 733 mmHg 39%
    08:00 +13°C° 0 mm 4 mps 733 mmHg 39%
    09:00 +14°C° 0 mm 4 mps 733 mmHg 37%
    10:00 +15°C° 0 mm 5 mps 733 mmHg 36%
    11:00 +16°C° 0 mm 5 mps 733 mmHg 35%
    12:00 +17°C° 0 mm 5 mps 732 mmHg 35%
    13:00 +19°C° 0 mm 5 mps 732 mmHg 34%
    14:00 +19°C° 0 mm 4 mps 732 mmHg 33%
    15:00 +18°C° 0 mm 4 mps 732 mmHg 37%
    16:00 +18°C° 0 mm 3 mps 732 mmHg 40%
    17:00 +17°C° 0 mm 3 mps 732 mmHg 43%
    18:00 +16°C° 0 mm 3 mps 732 mmHg 46%
    19:00 +15°C° 0 mm 4 mps 732 mmHg 49%
    20:00 +14°C° 0 mm 4 mps 732 mmHg 51%
    21:00 +14°C° 0 mm 5 mps 732 mmHg 55%
    22:00 +13°C° 0 mm 5 mps 733 mmHg 58%
    23:00 +13°C° 0 mm 5 mps 733 mmHg 61%

    27 November, Wednesday

    Time Temperature Precipitation Wind Pressure Humidity
    00:00 +12°C° 0 mm 4 mps 733 mmHg 64%
    01:00 +11°C° 0 mm 4 mps 732 mmHg 67%
    02:00 +11°C° 0 mm 3 mps 732 mmHg 70%
    03:00 +10°C° 0 mm 3 mps 732 mmHg 72%
    04:00 +10°C° 0 mm 3 mps 732 mmHg 74%
    05:00 +9°C° 0 mm 3 mps 732 mmHg 75%
    06:00 +10°C° 0 mm 3 mps 733 mmHg 74%
    07:00 +10°C° 0 mm 3 mps 733 mmHg 73%
    08:00 +11°C° 0 mm 3 mps 734 mmHg 72%
    09:00 +12°C° 0.2 mm 2 mps 734 mmHg 72%
    10:00 +13°C° 0.2 mm 2 mps 734 mmHg 71%
    11:00 +13°C° 0.2 mm 2 mps 734 mmHg 71%
    12:00 +13°C° 0.2 mm 2 mps 734 mmHg 72%
    13:00 +13°C° 0.2 mm 2 mps 733 mmHg 72%
    14:00 +13°C° 0.2 mm 2 mps 733 mmHg 73%
    15:00 +13°C° 0.1 mm 1 mps 734 mmHg 73%
    16:00 +13°C° 0.1 mm 1 mps 734 mmHg 74%
    17:00 +13°C° 0.1 mm 1 mps 734 mmHg 74%
    18:00 +13°C° 0.1 mm 1 mps 734 mmHg 74%
    19:00 +13°C° 0.1 mm 1 mps 734 mmHg 75%
    20:00 +13°C° 0.1 mm 1 mps 735 mmHg 76%
    21:00 +13°C° 0 mm 1 mps 735 mmHg 76%
    22:00 +13°C° 0 mm 1 mps 735 mmHg 77%
    23:00 +13°C° 0 mm 1 mps 735 mmHg 77%
    Show more